Location: Rostock
(54.0884°N, 12.1234°E)
Time: 10:27:34
(UTC+01:00)

Amateur Radio Satellites - All Passes

Search period start: 23 November 2017 09:57
Search period end: 24 November 2017 09:57
Location: Rostock, 54.0884°N, 12.1234°E

Satellite Date Start Highest point End Downlink Frequencies (MHz)
Time Altitude Azimuth
FO-29 23 Nov 09:59:47 10:04:18 17° 282° (WNW) 10:09:04 435.910
BEESAT 2 23 Nov 10:05:44 10:09:37 42° 34° (NE) 10:13:29 435.950
PRISM 23 Nov 10:08:34 10:12:34 46° 260° (W) 10:16:37 437.425
ZACube-1 23 Nov 10:15:50 10:18:32 17° 303° (WNW) 10:21:16 437.345
AAUSAT CUBESAT 2 23 Nov 10:24:23 10:25:44 11° 309° (NW) 10:27:05 437.432
BEESAT 3 23 Nov 10:26:54 10:30:51 63° 229° (SW) 10:34:43 437.485
AO-85 23 Nov 10:32:04 10:36:16 40° 32° (NNE) 10:40:47 145.980
Gurwin Techsat 1B 23 Nov 10:32:12 10:33:57 12° 42° (NE) 10:35:42 435.225
DELFI C3 23 Nov 10:33:28 10:37:22 52° 290° (WNW) 10:41:15 145.870
DUCHIFAT 1 23 Nov 10:35:05 10:39:01 39° 66° (ENE) 10:42:56 145.980
AO-91 23 Nov 10:40:58 10:43:50 15° 49° (NE) 10:46:39 145.960
PCSat 23 Nov 10:42:15 10:43:28 11° 259° (W) 10:44:42 145.827
EO-79 23 Nov 10:44:47 10:48:58 59° 70° (ENE) 10:53:08 145.935-145.965
NANOSAT C BR1 23 Nov 10:46:38 10:50:46 55° 70° (ENE) 10:54:54 145.865
POLYITAN 1 23 Nov 11:00:39 11:04:53 81° 75° (ENE) 11:09:08 437.675
AIST 2D 23 Nov 11:04:28 11:07:38 33° 264° (W) 11:10:50 435.315
EO-88 23 Nov 11:06:30 11:09:58 40° 292° (WNW) 11:13:24 145.990 - 145.960
Max Valier Satellite 23 Nov 11:13:22 11:16:30 27° 295° (WNW) 11:19:38 145.860
ESTCUBE 1 23 Nov 11:13:25 11:17:31 32° 95° (E) 11:21:36 437.505/2401.250
BUGSAT 1 23 Nov 11:19:29 11:23:11 32° 64° (ENE) 11:26:53 437.445
LO-87 23 Nov 11:23:54 11:27:23 50° 100° (E) 11:30:50 145.935 - 145.965
QB50P2 23 Nov 11:24:17 11:28:28 56° 259° (WSW) 11:32:39 145.880/145.840
Oscar 19 23 Nov 11:26:05 11:30:26 29° 58° (ENE) 11:34:49 437.125/150
HO-68 23 Nov 11:32:33 11:34:49 12° 336° (NNW) 11:37:04 435.675
AO-7 23 Nov 11:35:52 11:41:44 22° 32° (NNE) 11:47:36 .
BEESAT 2 23 Nov 11:43:34 11:47:23 40° 235° (SW) 11:51:08 435.950
SPROUT 23 Nov 12:05:28 12:09:11 28° 94° (E) 12:12:51 437.525
BEESAT 3 23 Nov 12:06:51 12:07:35 10° 249° (WSW) 12:08:17 437.485
Gurwin Techsat 1B 23 Nov 12:07:39 12:12:40 44° 63° (ENE) 12:17:43 435.225
DUCHIFAT 1 23 Nov 12:11:04 12:14:46 29° 265° (W) 12:18:29 145.980
AO-85 23 Nov 12:12:25 12:16:53 55° 232° (SW) 12:21:41 145.980
AO-91 23 Nov 12:14:02 12:19:20 58° 69° (ENE) 12:24:31 145.960
M-CUBED/EXP-1 PRIME 23 Nov 12:17:10 12:20:10 22° 51° (NE) 12:23:20 437.505
EO-79 23 Nov 12:21:56 12:25:05 20° 269° (W) 12:28:15 145.935-145.965
NANOSAT C BR1 23 Nov 12:23:34 12:26:48 21° 269° (W) 12:30:03 145.865
POLYITAN 1 23 Nov 12:38:50 12:41:14 15° 273° (W) 12:43:39 437.675
ESTCUBE 1 23 Nov 12:50:09 12:54:24 40° 295° (WNW) 12:58:39 437.505/2401.250
BUGSAT 1 23 Nov 12:54:38 12:58:30 36° 263° (W) 13:02:22 437.445
O/OREOS (USA 219) 23 Nov 12:57:55 13:02:05 35° 109° (ESE) 13:06:16 437.305
LO-87 23 Nov 12:57:58 13:00:30 19° 299° (WNW) 13:03:01 145.935 - 145.965
VELOX 1 23 Nov 13:00:35 13:05:01 59° 101° (ESE) 13:09:25 145.980
YUBILEINY 23 Nov 13:04:23 13:08:32 14° 30° (NNE) 13:12:40 435.215
Oscar 19 23 Nov 13:04:27 13:09:30 58° 258° (WSW) 13:14:35 437.125/150
ITAMSAT 1 23 Nov 13:23:32 13:27:44 25° 55° (NE) 13:31:58 435.822/435.867
AO-7 23 Nov 13:24:54 13:32:53 55° 56° (ENE) 13:40:54 .
DX 1 23 Nov 13:39:07 13:43:15 37° 98° (E) 13:47:18 434.975-435.025
SPROUT 23 Nov 13:41:11 13:45:12 41° 294° (WNW) 13:49:11 437.525
Gurwin Techsat 1B 23 Nov 13:47:47 13:52:43 38° 264° (W) 13:57:42 435.225
M-CUBED/EXP-1 PRIME 23 Nov 13:50:31 13:54:12 58° 252° (WSW) 13:58:14 437.505
AO-91 23 Nov 13:51:19 13:56:01 30° 268° (W) 14:00:41 145.960
AO-85 23 Nov 13:55:07 13:56:29 11° 250° (WSW) 13:57:54 145.980
50 SAT 23 Nov 14:05:27 14:08:42 79° 104° (ESE) 14:11:55 437.505
UKube-1 23 Nov 14:16:21 14:20:37 53° 101° (E) 14:24:52 .
BEESAT 23 Nov 14:27:31 14:30:16 15° 87° (E) 14:33:00 436.000
MOZHAYETS 4 23 Nov 14:29:17 14:32:37 20° 89° (E) 14:35:57
O/OREOS (USA 219) 23 Nov 14:37:03 14:41:27 43° 310° (NW) 14:45:52 437.305
VELOX 1 23 Nov 14:37:34 14:41:09 24° 302° (WNW) 14:44:42 145.980
ITUPSAT 1 23 Nov 14:38:24 14:41:41 18° 89° (E) 14:44:57 437.325
DOVE 4 23 Nov 14:44:45 14:48:50 24° 56° (NE) 14:53:01 437.250
Oscar 19 23 Nov 14:49:13 14:49:58 10° 279° (W) 14:50:43 437.125/150
YUBILEINY 23 Nov 15:00:37 15:08:45 38° 60° (ENE) 15:16:50 435.215
HO-68 23 Nov 15:00:43 15:04:07 14° 30° (NNE) 15:07:33 435.675
ITAMSAT 1 23 Nov 15:01:33 15:06:47 73° 256° (WSW) 15:12:03 435.822/435.867
CUTE-I 23 Nov 15:13:53 15:16:33 14° 45° (NE) 15:19:15 437.470
DX 1 23 Nov 15:15:25 15:19:23 34° 297° (WNW) 15:23:20 434.975-435.025
AO-7 23 Nov 15:17:48 15:25:48 51° 259° (W) 15:33:53 .
NO-84 23 Nov 15:25:06 15:28:35 36° 146° (SE) 15:32:19 435.350 FM
50 SAT 23 Nov 15:39:05 15:40:17 12° 303° (WNW) 15:41:28 437.505
KAITUO 1B 23 Nov 15:47:27 15:48:30 11° 54° (NE) 15:49:33 145.475/437.950
UKube-1 23 Nov 15:52:50 15:56:23 25° 301° (WNW) 15:59:53 .
BEESAT 23 Nov 16:03:58 16:08:45 88° 103° (ESE) 16:13:31 436.000
MOZHAYETS 4 23 Nov 16:05:41 16:10:15 68° 289° (WNW) 16:14:47
KKS-1 23 Nov 16:06:03 16:07:12 11° 84° (E) 16:08:20 437.445
XW-2D 23 Nov 16:06:24 16:09:14 21° 61° (ENE) 16:12:05 145.860 - 145.880
ITUPSAT 1 23 Nov 16:15:18 16:20:06 78° 288° (WNW) 16:24:51 437.325
O/OREOS (USA 219) 23 Nov 16:19:44 16:22:06 14° 333° (NNW) 16:24:27 437.305
DOVE 4 23 Nov 16:20:49 16:25:59 77° 257° (WSW) 16:31:20 437.250
XW-2B 23 Nov 16:20:54 16:24:04 26° 64° (ENE) 16:27:15 145.730 - 145.750
CUBESAT XI-V 23 Nov 16:23:15 16:27:53 54° 100° (E) 16:32:30 437.345
NUDT-PHONESAT 23 Nov 16:25:46 16:28:37 22° 62° (ENE) 16:31:29 437.300
RS-15 23 Nov 16:32:16 16:39:25 18° 93° (E) 16:46:31 29.354- 29.394
SEEDS 23 Nov 16:36:50 16:37:39 10° 50° (NE) 16:38:29 437.485
HO-68 23 Nov 16:43:32 16:49:59 38° 54° (NE) 16:56:28 435.675
ITAMSAT 1 23 Nov 16:44:36 16:47:12 14° 276° (W) 16:49:49 435.822/435.867
XW-2C 23 Nov 16:46:08 16:49:43 45° 69° (ENE) 16:53:20 145.795 - 145.815
CUTE-I 23 Nov 16:50:19 16:55:32 54° 66° (ENE) 17:00:48 437.470
LilacSat-2 23 Nov 16:51:02 16:54:43 54° 71° (ENE) 16:58:26 437.200
XW-2F 23 Nov 16:54:31 16:58:08 52° 70° (ENE) 17:01:48 145.980 - 146.000
YUBILEINY 23 Nov 16:57:30 17:06:19 71° 265° (W) 17:15:04 435.215
NO-84 23 Nov 17:01:46 17:05:42 90° 19° (NNE) 17:09:53 435.350 FM
AO-7 23 Nov 17:17:45 17:20:47 12° 283° (WNW) 17:23:52 .
KAITUO 1B 23 Nov 17:18:08 17:21:48 73° 73° (ENE) 17:25:31 145.475/437.950
CUBEBUG 2 23 Nov 17:28:32 17:32:17 27° 62° (ENE) 17:35:58 437.445
XW-2D 23 Nov 17:39:30 17:43:09 49° 261° (W) 17:46:49 145.860 - 145.880
KKS-1 23 Nov 17:40:07 17:44:37 70° 104° (ESE) 17:49:03 437.445
BEESAT 23 Nov 17:42:39 17:45:57 19° 307° (NW) 17:49:15 436.000
CUTE 1.7 + AOD 2 23 Nov 17:42:45 17:46:49 49° 69° (ENE) 17:50:55 437.475
MOZHAYETS 4 23 Nov 17:44:20 17:46:36 14° 309° (NW) 17:48:54
ITUPSAT 1 23 Nov 17:54:16 17:57:13 16° 309° (NW) 18:00:09 437.325
XW-2B 23 Nov 17:54:39 17:58:08 36° 263° (W) 18:01:39 145.730 - 145.750
STARS 23 Nov 17:57:27 18:01:43 46° 100° (E) 18:05:56 437.465
NUDT-PHONESAT 23 Nov 17:58:45 18:02:15 43° 261° (W) 18:05:47 437.300
CUBESAT XI-V 23 Nov 18:01:05 18:05:00 27° 300° (WNW) 18:08:56 437.345
DOVE 4 23 Nov 18:01:36 18:04:34 15° 277° (W) 18:07:34 437.250
ZACube-1 23 Nov 18:05:35 18:08:45 21° 59° (ENE) 18:11:55 437.345
AAUSAT CUBESAT 2 23 Nov 18:08:12 18:11:48 29° 63° (ENE) 18:15:25 437.432
SEEDS 23 Nov 18:08:23 18:12:27 56° 70° (ENE) 18:16:36 437.485
STRAND 1 23 Nov 18:17:32 18:19:58 13° 84° (E) 18:22:23 437.568
UWE-3 23 Nov 18:19:41 18:23:50 43° 68° (ENE) 18:27:54 435.000/436.395/437.385
XW-2C 23 Nov 18:21:16 18:24:08 20° 268° (W) 18:27:01 145.795 - 145.815
LilacSat-2 23 Nov 18:26:43 18:29:19 18° 270° (W) 18:31:56 437.200
XW-2F 23 Nov 18:29:55 18:32:33 18° 270° (W) 18:35:12 145.980 - 146.000
HO-68 23 Nov 18:30:14 18:37:24 67° 256° (WSW) 18:44:37 435.675
CUTE-I 23 Nov 18:31:08 18:35:52 31° 266° (W) 18:40:39 437.470
RS-15 23 Nov 18:37:13 18:49:06 58° 119° (ESE) 19:00:49 29.354- 29.394
NO-84 23 Nov 18:39:07 18:43:12 81° 10° (N) 18:47:27 435.350 FM
XW-2A 23 Nov 18:42:22 18:45:39 61° 72° (ENE) 18:48:57 145.665 - 145.685
AO-73 23 Nov 18:53:56 18:58:00 46° 68° (ENE) 19:02:00 145.935
KAITUO 1B 23 Nov 18:54:27 18:56:16 13° 273° (W) 18:58:06 145.475/437.950
YUBILEINY 23 Nov 18:55:41 19:01:32 20° 289° (WNW) 19:07:22 435.215
CUBEBUG 2 23 Nov 19:04:20 19:08:43 49° 261° (W) 19:13:00 437.445
Oscar 11 23 Nov 19:07:27 19:11:33 45° 67° (ENE) 19:15:39 .
FO-29 23 Nov 19:13:43 19:19:19 21° 80° (E) 19:24:43 435.910
KKS-1 23 Nov 19:17:24 19:20:45 21° 304° (WNW) 19:24:05 437.445
CUTE 1.7 + AOD 2 23 Nov 19:19:30 19:22:54 23° 268° (W) 19:26:20 437.475
STARS 23 Nov 19:34:07 19:37:53 28° 299° (WNW) 19:41:38 437.465
ZACube-1 23 Nov 19:40:29 19:44:43 61° 259° (W) 19:48:54 437.345
O/OREOS (USA 219) 23 Nov 19:43:13 19:45:21 13° 25° (NNE) 19:47:27 437.305
AAUSAT CUBESAT 2 23 Nov 19:43:15 19:47:08 39° 263° (W) 19:51:05 437.432
SEEDS 23 Nov 19:45:19 19:48:29 21° 270° (W) 19:51:41 437.485
DELFI C3 23 Nov 19:50:24 19:53:51 29° 64° (ENE) 19:57:21 145.870
STRAND 1 23 Nov 19:54:57 20:00:06 72° 104° (ESE) 20:05:12 437.568
UWE-3 23 Nov 19:56:43 20:00:28 27° 266° (W) 20:04:09 435.000/436.395/437.385
nSIGHT-1 23 Nov 20:10:36 20:12:04 13° 143° (SE) 20:13:32 .
NO-84 23 Nov 20:16:27 20:20:31 52° 208° (SSW) 20:24:41 435.350 FM
EO-88 23 Nov 20:16:52 20:19:55 26° 64° (ENE) 20:23:01 145.990 - 145.960
XW-2A 23 Nov 20:17:07 20:18:44 13° 271° (W) 20:20:20 145.665 - 145.685
HO-68 23 Nov 20:22:11 20:26:33 17° 278° (W) 20:30:56 435.675
Max Valier Satellite 23 Nov 20:24:05 20:27:31 40° 69° (ENE) 20:30:59 145.860
AO-73 23 Nov 20:30:56 20:34:26 25° 267° (W) 20:37:55 145.935
Oscar 11 23 Nov 20:44:14 20:47:52 26° 267° (W) 20:51:33 .
ESTCUBE 1 23 Nov 20:45:23 20:47:26 13° 50° (NE) 20:49:28 437.505/2401.250
RS-15 23 Nov 20:49:14 21:01:36 70° 326° (NNW) 21:13:41 29.354- 29.394
FO-29 23 Nov 20:57:45 21:05:42 73° 103° (ESE) 21:13:13 435.910
ISS 23 Nov 21:01:34 21:04:09 22° 151° (SSE) 21:06:46 437.550
SO-50 23 Nov 21:16:48 21:20:40 29° 120° (ESE) 21:24:34 436.795
O/OREOS (USA 219) 23 Nov 21:21:45 21:26:04 39° 49° (NE) 21:30:20 437.305
DELFI C3 23 Nov 21:24:49 21:28:32 37° 263° (W) 21:32:16 145.870
UNISAT 6 23 Nov 21:31:54 21:35:45 31° 95° (E) 21:39:32 437.425
STRAND 1 23 Nov 21:34:46 21:38:51 24° 305° (NW) 21:42:54 437.568
TIGRISAT 23 Nov 21:35:31 21:39:21 31° 95° (E) 21:43:07 435.000
PRISM 23 Nov 21:43:47 21:46:23 16° 89° (E) 21:48:59 437.425
nSIGHT-1 23 Nov 21:44:40 21:47:40 37° 162° (SSE) 21:50:40 .
EO-88 23 Nov 21:50:09 21:53:29 34° 263° (W) 21:56:50 145.990 - 145.960
NO-84 23 Nov 21:54:36 21:57:14 16° 227° (SW) 21:59:52 435.350 FM
Max Valier Satellite 23 Nov 21:58:38 22:01:31 22° 267° (W) 22:04:25 145.860
LO-87 23 Nov 22:05:35 22:09:08 57° 71° (ENE) 22:12:41 145.935 - 145.965
ESTCUBE 1 23 Nov 22:18:58 22:23:24 64° 71° (ENE) 22:27:52 437.505/2401.250
AIST 2D 23 Nov 22:23:26 22:25:06 13° 88° (E) 22:26:45 435.315
VELOX 1 23 Nov 22:29:02 22:32:19 21° 56° (ENE) 22:35:37 145.980
ISS 23 Nov 22:37:01 22:40:13 50° 170° (S) 22:43:24 437.550
FO-29 23 Nov 22:43:10 22:50:13 38° 305° (NW) 22:57:02 435.910
SO-50 23 Nov 22:56:24 23:00:52 62° 321° (NW) 23:05:24 436.795
O/OREOS (USA 219) 23 Nov 23:01:16 23:05:31 38° 250° (WSW) 23:09:41 437.305
QB50P2 23 Nov 23:03:15 23:05:47 15° 88° (E) 23:08:19 145.880/145.840
RS-15 23 Nov 23:04:22 23:16:17 51° 358° (N) 23:27:44 29.354- 29.394
SPROUT 23 Nov 23:04:34 23:08:42 49° 68° (ENE) 23:12:51 437.525
DX 1 23 Nov 23:07:06 23:09:29 14° 51° (NE) 23:11:51 434.975-435.025
UNISAT 6 23 Nov 23:08:34 23:12:33 38° 295° (WNW) 23:16:29 437.425
TIGRISAT 23 Nov 23:12:09 23:16:08 38° 295° (WNW) 23:20:03 435.000
PRISM 23 Nov 23:17:58 23:22:09 74° 289° (WNW) 23:26:18 437.425
nSIGHT-1 23 Nov 23:20:29 23:23:38 55° 182° (S) 23:26:47 .
LO-87 23 Nov 23:40:38 23:42:52 16° 270° (W) 23:45:08 145.935 - 145.965
UKube-1 23 Nov 23:42:36 23:45:35 19° 55° (NE) 23:48:36 .
PCSat 23 Nov 23:44:03 23:48:56 35° 116° (ESE) 23:53:50 145.827
DUCHIFAT 1 23 Nov 23:47:42 23:51:19 27° 94° (E) 23:54:54 145.980
AIST 2D 23 Nov 23:55:11 23:58:43 70° 286° (WNW) 00:02:14 435.315
ESTCUBE 1 23 Nov 23:57:17 00:00:38 20° 270° (W) 00:04:00 437.505/2401.250
EO-79 23 Nov 23:58:16 00:02:17 42° 98° (E) 00:06:17 145.935-145.965
NANOSAT C BR1 23 Nov 23:59:40 00:03:38 39° 98° (E) 00:07:34 145.865
VELOX 1 24 Nov 00:03:53 00:08:19 72° 256° (WSW) 00:12:49 145.980
ISS 24 Nov 00:13:17 00:16:28 49° 190° (S) 00:19:39 437.550
POLYITAN 1 24 Nov 00:14:18 00:18:29 60° 102° (ESE) 00:22:36 437.675
ITUPSAT 1 24 Nov 00:18:02 00:18:47 10° 44° (NE) 00:19:32 437.325
FO-29 24 Nov 00:29:18 00:33:10 15° 328° (NNW) 00:37:02 435.910
BUGSAT 1 24 Nov 00:29:43 00:32:47 20° 91° (E) 00:35:48 437.445
QB50P2 24 Nov 00:37:53 00:42:07 77° 286° (WNW) 00:46:18 145.880/145.840
50 SAT 24 Nov 00:38:08 00:41:22 75° 73° (ENE) 00:44:37 437.505
SO-50 24 Nov 00:38:19 00:42:07 26° 345° (NNW) 00:45:58 436.795
DX 1 24 Nov 00:40:34 00:44:56 75° 72° (ENE) 00:49:22 434.975-435.025
SPROUT 24 Nov 00:41:20 00:44:50 24° 268° (W) 00:48:20 437.525
PRISM 24 Nov 00:54:43 00:56:44 13° 308° (NW) 00:58:44 437.425
nSIGHT-1 24 Nov 00:56:39 00:59:34 32° 201° (SSW) 01:02:29 .
Oscar 19 24 Nov 01:09:09 01:13:43 31° 94° (E) 01:18:15 437.125/150
UKube-1 24 Nov 01:16:48 01:21:08 78° 255° (WSW) 01:25:30 .
RS-15 24 Nov 01:18:55 01:31:04 66° 30° (NNE) 01:42:33 29.354- 29.394
DUCHIFAT 1 24 Nov 01:23:11 01:27:07 41° 294° (WNW) 01:31:01 145.980
PCSat 24 Nov 01:26:47 01:32:08 59° 317° (NW) 01:37:32 145.827
EO-79 24 Nov 01:34:20 01:37:55 28° 298° (WNW) 01:41:29 145.935-145.965
AO-91 24 Nov 01:34:25 01:38:58 46° 97° (E) 01:43:02 145.960
NANOSAT C BR1 24 Nov 01:35:36 01:39:15 29° 297° (WNW) 01:42:53 145.865
MOZHAYETS 4 24 Nov 01:37:05 01:41:20 40° 65° (ENE) 01:45:36
BEESAT 24 Nov 01:39:32 01:43:54 37° 63° (ENE) 01:48:17 436.000
VELOX 1 24 Nov 01:44:17 01:45:37 11° 276° (W) 01:46:57 145.980
ISS 24 Nov 01:49:57 01:52:31 21° 210° (SSW) 01:55:03 437.550
POLYITAN 1 24 Nov 01:50:44 01:53:55 21° 301° (WNW) 01:57:06 437.675
ITUPSAT 1 24 Nov 01:50:58 01:55:30 44° 65° (ENE) 02:00:02 437.325
Gurwin Techsat 1B 24 Nov 01:56:27 02:01:41 53° 100° (E) 02:06:53 435.225
CUBESAT XI-V 24 Nov 01:57:10 02:00:32 20° 56° (NE) 02:03:57 437.345
BEESAT 3 24 Nov 01:59:31 02:02:43 23° 119° (ESE) 02:05:55 437.485
BUGSAT 1 24 Nov 02:04:30 02:08:27 53° 291° (WNW) 02:12:21 437.445
50 SAT 24 Nov 02:13:23 02:13:54 10° 272° (W) 02:14:26 437.505
QB50P2 24 Nov 02:15:06 02:17:13 14° 307° (NW) 02:19:20 145.880/145.840
DX 1 24 Nov 02:18:48 02:21:40 17° 271° (W) 02:24:32 434.975-435.025
SO-50 24 Nov 02:20:12 02:23:53 23° 9° (N) 02:27:36 436.795
nSIGHT-1 24 Nov 02:34:58 02:35:05 10° 220° (SW) 02:35:11 .
Oscar 19 24 Nov 02:48:17 02:53:17 52° 294° (WNW) 02:58:18 437.125/150
M-CUBED/EXP-1 PRIME 24 Nov 02:55:52 03:00:06 37° 103° (ESE) 03:04:25 437.505
UKube-1 24 Nov 02:56:19 02:57:54 12° 275° (W) 02:59:30 .
ITAMSAT 1 24 Nov 03:07:58 03:12:13 25° 91° (E) 03:16:26 435.822/435.867
KKS-1 24 Nov 03:08:56 03:12:34 25° 59° (ENE) 03:16:13 437.445
AO-91 24 Nov 03:11:08 03:15:13 29° 300° (WNW) 03:18:57 145.960
AO-7 24 Nov 03:11:10 03:18:56 40° 97° (E) 03:26:38 .
PCSat 24 Nov 03:12:07 03:16:35 25° 341° (NNW) 03:21:05 145.827
MOZHAYETS 4 24 Nov 03:14:27 03:18:34 33° 265° (W) 03:22:43
BEESAT 2 24 Nov 03:17:12 03:20:58 38° 124° (SE) 03:24:44 435.950
BEESAT 24 Nov 03:17:13 03:21:41 39° 263° (W) 03:26:10 436.000
STARS 24 Nov 03:25:45 03:28:40 18° 54° (NE) 03:31:35 437.465
ITUPSAT 1 24 Nov 03:29:11 03:33:28 32° 265° (W) 03:37:46 437.325
RS-15 24 Nov 03:32:01 03:43:41 62° 239° (WSW) 03:54:44 29.354- 29.394
CUBESAT XI-V 24 Nov 03:32:50 03:37:26 76° 256° (WSW) 03:42:07 437.345
BEESAT 3 24 Nov 03:35:57 03:39:56 65° 318° (NW) 03:43:57 437.485
Gurwin Techsat 1B 24 Nov 03:36:44 03:41:27 33° 301° (WNW) 03:46:10 435.225
SO-50 24 Nov 04:00:54 04:05:21 45° 33° (NNE) 04:09:50 436.795
YUBILEINY 24 Nov 04:11:26 04:18:47 31° 79° (E) 04:26:10 435.215
AO-85 24 Nov 04:12:55 04:16:42 47° 127° (SE) 04:20:44 145.980
DOVE 4 24 Nov 04:13:39 04:17:40 22° 87° (E) 04:21:32 437.250
Oscar 19 24 Nov 04:29:19 04:31:34 13° 315° (NW) 04:33:49 437.125/150
M-CUBED/EXP-1 PRIME 24 Nov 04:30:17 04:34:29 40° 301° (WNW) 04:38:49 437.505
KKS-1 24 Nov 04:44:25 04:48:50 57° 258° (WSW) 04:53:17 437.445
ITAMSAT 1 24 Nov 04:46:57 04:52:08 65° 292° (WNW) 04:57:17 435.822/435.867
BEESAT 2 24 Nov 04:54:46 04:58:40 44° 325° (NW) 05:02:36 435.950
PCSat 24 Nov 04:57:37 05:01:46 21° 7° (N) 05:05:53 145.827
STARS 24 Nov 05:00:00 05:04:27 87° 257° (WSW) 05:08:55 437.465
CUTE-I 24 Nov 05:02:12 05:04:28 13° 82° (E) 05:06:43 437.470
AO-7 24 Nov 05:03:58 05:12:13 67° 299° (WNW) 05:20:28 .
XW-2D 24 Nov 05:06:36 05:08:06 12° 86° (E) 05:09:37 145.860 - 145.880
CUBESAT XI-V 24 Nov 05:13:46 05:15:39 12° 276° (W) 05:17:33 437.345
BEESAT 3 24 Nov 05:14:55 05:18:09 23° 341° (NNW) 05:21:23 437.485
XW-2B 24 Nov 05:20:50 05:23:13 16° 89° (E) 05:25:37 145.730 - 145.750
NUDT-PHONESAT 24 Nov 05:23:21 05:24:50 12° 87° (E) 05:26:17 437.300
FO-29 24 Nov 05:33:32 05:38:57 23° 44° (NE) 05:44:38 435.910
STRAND 1 24 Nov 05:38:57 05:43:39 38° 62° (ENE) 05:48:23 437.568
SO-50 24 Nov 05:41:27 05:45:53 47° 234° (SW) 05:50:22 436.795
XW-2C 24 Nov 05:45:59 05:49:18 27° 94° (E) 05:52:36 145.795 - 145.815
RS-15 24 Nov 05:46:09 05:53:24 19° 266° (W) 06:00:29 29.354- 29.394
DOVE 4 24 Nov 05:50:39 05:55:54 71° 289° (WNW) 06:00:52 437.250
HO-68 24 Nov 05:51:27 05:56:15 19° 84° (E) 06:01:01 435.675
LilacSat-2 24 Nov 05:51:39 05:55:10 33° 96° (E) 05:58:40 437.200
AO-85 24 Nov 05:53:26 05:57:14 38° 330° (NNW) 06:01:17 145.980
XW-2F 24 Nov 05:53:47 05:57:11 30° 95° (E) 06:00:34 145.980 - 146.000
YUBILEINY 24 Nov 06:05:58 06:14:47 79° 284° (WNW) 06:23:42 435.215
M-CUBED/EXP-1 PRIME 24 Nov 06:07:05 06:07:52 10° 321° (NW) 06:08:39 437.505
KAITUO 1B 24 Nov 06:16:16 06:19:51 40° 98° (E) 06:23:27 145.475/437.950
ITAMSAT 1 24 Nov 06:27:40 06:30:43 16° 313° (NW) 06:33:46 435.822/435.867
BEESAT 2 24 Nov 06:34:13 06:37:17 20° 348° (NNW) 06:40:21 435.950
XW-2D 24 Nov 06:39:01 06:42:51 86° 284° (WNW) 06:46:41 145.860 - 145.880
STARS 24 Nov 06:39:13 06:41:28 14° 273° (W) 06:43:44 437.465
CUTE-I 24 Nov 06:40:13 06:45:35 66° 103° (ESE) 06:50:55 437.470
PCSat 24 Nov 06:41:33 06:46:37 37° 32° (NNE) 06:51:40 145.827
CUBEBUG 2 24 Nov 06:48:38 06:51:53 21° 91° (E) 06:55:04 437.445
XW-2B 24 Nov 06:54:01 06:57:48 63° 287° (WNW) 07:01:35 145.730 - 145.750
BEESAT 3 24 Nov 06:54:07 06:56:55 18° 5° (N) 06:59:42 437.485
NUDT-PHONESAT 24 Nov 06:55:28 06:59:13 82° 284° (WNW) 07:02:56 437.300
CUTE 1.7 + AOD 2 24 Nov 06:56:22 07:00:25 39° 97° (E) 07:04:27 437.475
AO-7 24 Nov 06:57:16 07:03:42 26° 323° (NW) 07:10:09 .
UNISAT 6 24 Nov 07:03:20 07:05:05 12° 51° (NE) 07:06:50 437.425
TIGRISAT 24 Nov 07:06:51 07:08:34 12° 51° (NE) 07:10:17 435.000
FO-29 24 Nov 07:15:41 07:22:40 67° 67° (ENE) 07:30:22 435.910
STRAND 1 24 Nov 07:17:55 07:22:49 43° 262° (W) 07:27:44 437.568
AAUSAT CUBESAT 2 24 Nov 07:18:34 07:21:50 21° 91° (E) 07:25:05 437.432
XW-2C 24 Nov 07:20:02 07:23:33 35° 293° (WNW) 07:27:03 145.795 - 145.815
SEEDS 24 Nov 07:20:47 07:24:52 43° 98° (E) 07:28:56 437.485
ZACube-1 24 Nov 07:22:40 07:25:17 16° 88° (E) 07:27:52 437.345
LilacSat-2 24 Nov 07:26:01 07:29:24 30° 295° (WNW) 07:32:47 437.200
XW-2F 24 Nov 07:27:53 07:31:17 32° 294° (WNW) 07:34:41 145.980 - 146.000
DOVE 4 24 Nov 07:29:28 07:32:42 17° 310° (NW) 07:35:51 437.250
XW-2A 24 Nov 07:30:00 07:32:51 25° 95° (E) 07:35:42 145.665 - 145.685
AO-85 24 Nov 07:35:30 07:38:42 21° 354° (N) 07:42:06 145.980
HO-68 24 Nov 07:38:02 07:45:17 74° 106° (ESE) 07:52:27 435.675
UWE-3 24 Nov 07:38:35 07:42:27 36° 96° (E) 07:46:18 435.000/436.395/437.385
KAITUO 1B 24 Nov 07:50:35 07:53:41 24° 297° (WNW) 07:56:46 145.475/437.950
YUBILEINY 24 Nov 08:06:08 08:13:13 26° 309° (NW) 08:20:23 435.215
AO-73 24 Nov 08:10:53 08:14:47 38° 97° (E) 08:18:41 145.935
BEESAT 2 24 Nov 08:13:14 08:16:17 20° 12° (NNE) 08:19:19 435.950
XW-2D 24 Nov 08:14:38 08:16:25 13° 305° (NW) 08:18:13 145.860 - 145.880
CUTE-I 24 Nov 08:20:47 08:25:18 28° 303° (WNW) 08:29:46 437.470
Oscar 11 24 Nov 08:23:43 08:27:45 37° 96° (E) 08:31:46 .
CUBEBUG 2 24 Nov 08:24:44 08:28:50 52° 291° (WNW) 08:32:50 437.445
PCSat 24 Nov 08:25:00 08:30:24 68° 235° (SW) 08:35:46 145.827
XW-2B 24 Nov 08:30:42 08:31:13 10° 308° (NW) 08:31:45 145.730 - 145.750
NUDT-PHONESAT 24 Nov 08:30:57 08:32:27 12° 305° (NW) 08:33:57 437.300
BEESAT 3 24 Nov 08:31:56 08:35:32 31° 28° (NNE) 08:39:06 437.485
CUTE 1.7 + AOD 2 24 Nov 08:32:24 08:36:10 30° 296° (WNW) 08:39:55 437.475
UNISAT 6 24 Nov 08:36:33 08:41:00 61° 70° (ENE) 08:45:22 437.425
PRISM 24 Nov 08:38:39 08:42:11 28° 62° (ENE) 08:45:46 437.425
TIGRISAT 24 Nov 08:40:01 08:44:28 61° 70° (ENE) 08:48:49 435.000
AO-7 24 Nov 08:49:54 08:53:44 14° 350° (N) 08:57:35 .
AAUSAT CUBESAT 2 24 Nov 08:53:28 08:57:35 53° 290° (WNW) 09:01:40 437.432
DELFI C3 24 Nov 08:55:05 08:57:59 19° 90° (E) 09:00:52 145.870
SEEDS 24 Nov 08:56:47 09:00:24 28° 297° (WNW) 09:04:01 437.485
ZACube-1 24 Nov 08:57:54 09:02:03 71° 287° (WNW) 09:06:12 437.345
FO-29 24 Nov 09:01:51 09:08:14 36° 270° (W) 09:15:13 435.910
XW-2A 24 Nov 09:02:35 09:05:35 30° 293° (WNW) 09:08:35 145.665 - 145.685
AIST 2D 24 Nov 09:03:58 09:05:54 14° 59° (ENE) 09:07:51 435.315
EO-88 24 Nov 09:12:39 09:14:38 14° 88° (E) 09:16:36 145.990 - 145.960
UWE-3 24 Nov 09:15:13 09:18:52 31° 296° (WNW) 09:22:31 435.000/436.395/437.385
AO-85 24 Nov 09:16:45 09:20:25 25° 18° (NNE) 09:24:18 145.980
Max Valier Satellite 24 Nov 09:21:02 09:23:59 22° 93° (E) 09:26:56 145.860
EO-79 24 Nov 09:23:35 09:25:41 14° 53° (NE) 09:27:47 145.935-145.965
NANOSAT C BR1 24 Nov 09:24:56 09:26:48 13° 52° (NE) 09:28:38 145.865
HO-68 24 Nov 09:26:14 09:32:34 35° 308° (NW) 09:38:51 435.675
POLYITAN 1 24 Nov 09:38:56 09:41:45 18° 56° (NE) 09:44:33 437.675
AO-73 24 Nov 09:47:20 09:50:57 30° 297° (WNW) 09:54:35 145.935
